Weather Roundup
Issued by NWS Springfield, MO

Home | Current Version | Previous Version | Text Only | Print | Product List | Glossary On
Versions: 1 2 3 4 5 6 7 8 9 10 11 12 13 14 15 16 17 18 19 20 21 22 23 24 25 26 27 28 29 30 31 32 33 34 35 36 37 38 39 40 41 42 43 44 45 46 47 48 49 50
000
NZUS99 KSGF 031107
HRRSGF

HOURLY WEATHER
NATIONAL WEATHER SERVICE SPRINGFIELD MO
600 AM CDT FRI JUL 03 2015

......SGF CWA......

CITY           SKY/WX    TMP DP  RH WIND       PRES   REMARKS
SPRINGFIELD    CLOUDY    72  69  90 CALM      29.91R
JOPLIN         CLEAR     67  66  97 W3        29.92R
WEST PLAINS    MOCLDY    68  66  93 CALM      29.92R FOG
ROLLA          CLOUDY    65  62  90 NE5       29.91S
OSAGE BEACH    CLOUDY    66  64  94 CALM      29.91S
BRANSON        CLEAR     66  66 100 CALM      29.93S

......SURROUNDING SGF CWA......

CITY           SKY/WX    TMP DP  RH WIND       PRES   REMARKS
CHANUTE        FOG       69  69 100 CALM      29.91R VSB 3/4
PARSONS        MOCLDY    70  69  97 CALM      29.91R
COFFEYVILLE    MOCLDY    68  67  96 SE3       29.89R
EMPORIA        FOG       66  65  96 CALM      29.90S VSB 3/4
GROVE OK       PTCLDY    68  68 100 CALM      29.91R
ROGERS AR      PTCLDY    67  66  97 S6        29.93S
SILOAM SPRINGS MOCLDY    68  63  83 S3          N/A
HARRISON AR    MOCLDY    68  66  93 W3        29.93R
NEAR YELLVILLE CLEAR     70  66  88 CALM      29.89S

......KANSAS AND MISSOURI......

CITY           SKY/WX    TMP DP  RH WIND       PRES   REMARKS
KANSAS CTY INT CLOUDY    65  62  90 NE8       29.93S
DOWNTOWN KC    CLOUDY    67  62  84 NE6       29.92S
COLUMBIA       CLOUDY    66  61  84 NE6       29.93R
SEDALIA        CLOUDY    67  62  84 NE5       29.94R
ST JOSEPH      CLOUDY    64  59  83 NE5       29.95R
ST LOUIS       MOCLDY    67  62  84 N3        29.90S
SPIRIT OF STL  CLOUDY    67  64  90 W3        29.89S
KIRKSVILLE     PTCLDY    62  59  90 N5        29.95S
WICHITA        PTCLDY    67  65  93 SW3       29.92R
TOPEKA         LGT RAIN  68  66  93 NE10      29.92R FOG
OLATHE         LGT RAIN  65  63  93 NE6       29.92R

......TENNESSEE......

CITY           SKY/WX    TMP DP  RH WIND       PRES   REMARKS
MEMPHIS        TSTM      75  73  94 SW8       29.89S FOG
NASHVILLE      CLOUDY    72  72 100 SW3       29.88R

......ARKANSAS.......

CITY           SKY/WX    TMP DP  RH WIND       PRES   REMARKS
FAYETTEVILLE   LGT RAIN  70  69  97 SW6       29.93R
FT SMITH       LGT RAIN  70  66  87 SW13      29.90R
LITTLE ROCK    LGT RAIN  77  72  84 SW9       29.91S

......OKLAHOMA.......

CITY           SKY/WX    TMP DP  RH WIND       PRES   REMARKS
TULSA          PTCLDY    73  70  90 S5        29.90R
PONCA CITY     CLEAR     67  65  93 CALM      29.91S
MCALESTER      CLOUDY    75  73  93 SW9       29.91F
OKLAHOMA CITY  MOCLDY    71  70  96 S8        29.91R

......IOWA............

CITY           SKY/WX    TMP DP  RH WIND       PRES   REMARKS
DES MOINES     PTCLDY    60  54  80 N3        29.97S
QUAD CITIES    CLOUDY    59  53  80 E5        29.96S

......ILLINOIS........

CITY           SKY/WX    TMP DP  RH WIND       PRES   REMARKS
QUINCY         MOCLDY    63  60  90 N7        29.93R
CHICAGO        CLOUDY    57  52  83 N6        29.96S



USA.gov is the U.S. government's official web portal to all federal, state and local government web resources and services.